TimeMST,TemperatureF,Dew PointF,Humidity,Sea Level PressureIn,VisibilityMPH,Wind Direction,Wind SpeedMPH,Gust SpeedMPH,PrecipitationIn,Events,Conditions,WindDirDegrees,DateUTC
12:15 AM,10.4,8.6,92,30.02,10.0,NW,9.2,-,N/A,,Clear,320,2012-12-28 07:15:00
12:35 AM,10.4,10.4,100,30.02,10.0,WNW,10.4,-,N/A,,Clear,300,2012-12-28 07:35:00
12:55 AM,12.2,10.4,92,30.02,10.0,NW,6.9,-,N/A,,Clear,320,2012-12-28 07:55:00
1:15 AM,12.2,10.4,92,30.03,10.0,NW,9.2,-,N/A,,Clear,310,2012-12-28 08:15:00
1:35 AM,12.2,10.4,92,30.04,10.0,NNW,9.2,-,N/A,,Clear,330,2012-12-28 08:35:00
1:55 AM,10.4,10.4,100,30.04,10.0,NW,12.7,-,N/A,,Clear,320,2012-12-28 08:55:00
2:15 AM,12.2,10.4,92,30.04,10.0,NNW,10.4,-,N/A,,Clear,340,2012-12-28 09:15:00
2:35 AM,12.2,10.4,92,30.05,10.0,NW,11.5,-,N/A,,Clear,320,2012-12-28 09:35:00
2:55 AM,12.2,10.4,92,30.05,10.0,NW,10.4,-,N/A,,Clear,320,2012-12-28 09:55:00
3:15 AM,12.2,10.4,92,30.06,10.0,NW,11.5,-,N/A,,Clear,310,2012-12-28 10:15:00
3:35 AM,12.2,10.4,92,30.06,10.0,NW,11.5,17.3,N/A,,Clear,310,2012-12-28 10:35:00
3:55 AM,12.2,8.6,85,30.06,10.0,NW,12.7,-,N/A,,Clear,320,2012-12-28 10:55:00
4:15 AM,14.0,8.6,79,30.05,10.0,NW,13.8,-,N/A,,Clear,320,2012-12-28 11:15:00
4:35 AM,12.2,8.6,85,30.05,10.0,NW,11.5,-,N/A,,Clear,320,2012-12-28 11:35:00
4:55 AM,12.2,8.6,85,30.05,10.0,NW,13.8,-,N/A,,Clear,310,2012-12-28 11:55:00
5:35 AM,12.2,6.8,79,30.05,10.0,NW,12.7,-,N/A,,Clear,320,2012-12-28 12:35:00
5:55 AM,14.0,6.8,73,30.05,10.0,NW,11.5,-,N/A,,Clear,310,2012-12-28 12:55:00
6:47 AM,10.4,5.0,79,30.08,10.0,WNW,11.5,-,N/A,,Partly Cloudy,300,2012-12-28 13:47:00
7:47 AM,10.4,3.2,73,30.08,10.0,WNW,9.2,-,N/A,,Clear,290,2012-12-28 14:47:00
9:47 AM,10.4,3.2,73,30.12,10.0,WNW,6.9,-,N/A,,Partly Cloudy,290,2012-12-28 16:47:00
11:47 AM,17.6,8.6,68,30.11,10.0,NW,8.1,-,N/A,,Scattered Clouds,320,2012-12-28 18:47:00
12:47 PM,19.4,10.4,68,30.10,10.0,ESE,6.9,-,N/A,,Scattered Clouds,120,2012-12-28 19:47:00
1:55 PM,21.2,12.2,68,30.09,10.0,SE,5.8,-,N/A,,Partly Cloudy,130,2012-12-28 20:55:00
3:47 PM,17.6,10.4,73,30.11,10.0,SE,5.8,-,N/A,,Scattered Clouds,130,2012-12-28 22:47:00
4:50 PM,12.2,6.8,79,30.13,10.0,SE,4.6,-,N/A,,Scattered Clouds,130,2012-12-28 23:50:00
5:47 PM,14.0,10.4,86,30.14,10.0,Calm,Calm,-,N/A,,Scattered Clouds,0,2012-12-29 00:47:00
6:47 PM,12.2,8.6,85,30.14,10.0,WNW,6.9,-,N/A,,Scattered Clouds,290,2012-12-29 01:47:00
7:47 PM,12.2,8.6,85,30.14,10.0,WNW,9.2,-,N/A,,Scattered Clouds,290,2012-12-29 02:47:00
8:47 PM,10.4,6.8,85,30.15,10.0,WNW,8.1,-,N/A,,Partly Cloudy,290,2012-12-29 03:47:00
9:47 PM,10.4,6.8,85,30.16,10.0,WNW,8.1,-,N/A,,Partly Cloudy,290,2012-12-29 04:47:00
10:15 PM,12.2,6.8,79,30.17,10.0,NW,9.2,-,N/A,,Clear,320,2012-12-29 05:15:00
10:35 PM,12.2,6.8,79,30.17,10.0,NW,8.1,-,N/A,,Clear,310,2012-12-29 05:35:00
10:47 PM,10.4,6.8,85,30.17,10.0,WNW,9.2,-,N/A,,Partly Cloudy,300,2012-12-29 05:47:00
10:55 PM,12.2,5.0,73,30.17,10.0,NW,9.2,-,N/A,,Clear,320,2012-12-29 05:55:00
11:15 PM,12.2,5.0,73,30.18,10.0,NW,8.1,-,N/A,,Clear,320,2012-12-29 06:15:00
11:35 PM,10.4,5.0,79,30.18,10.0,NW,8.1,-,N/A,,Clear,310,2012-12-29 06:35:00
11:55 PM,10.4,5.0,79,30.18,10.0,NW,9.2,-,N/A,,Clear,310,2012-12-29 06:55:00